Location: Alafon
(8.4500°N, 4.2333°E)
Time: 18:31:47
(UTC+00:00)

A-11 Canister half - Pass Details

Date: 12 August 2021
Orbit: 1515 x 1685 km, 47.2° (Epoch: 19 September)

Event Time Altitude Azimuth Distance (km) Brightness Sun altitude
Rises 12:28:23 0° 248° (WSW) 4,655 11.6 78.3°
Reaches altitude 10° 12:31:54 10° 258° (WSW) 3,682 11.3 77.5°
Maximum altitude 12:39:43 30° 316° (NW) 2,482 10.9 75.9°
Drops below altitude 10° 12:47:44 10° 14° (NNE) 3,769 11.2 74.1°
Sets 12:51:26 0° 25° (NNE) 4,781 11.6 73.2°
